Location: Juzet
(42.9779°N, 0.7597°E)
Time: 08:43:58
(UTC+00:00)

Abrixas rocket - Pass Details

Date: 14 July 2020
Orbit: 339 x 347 km, 48.4° (Epoch: 04 August)

Event Time Altitude Azimuth Distance (km) Brightness Sun altitude
Rises 03:04:39 0° 296° (WNW) 2,126 5.7 -13.1°
Reaches altitude 10° 03:06:40 10° 297° (WNW) 1,284 4.6 -12.8°
Maximum altitude 03:09:32 80° 25° (NNE) 348 1.9 -12.5°
Drops below altitude 10° 03:12:23 10° 113° (ESE) 1,278 5.0 -12.1°
Sets 03:14:23 0° 114° (ESE) 2,115 6.1 -11.8°
